Hauptseite
METAR-TAF:

METAR-TAF

Flughäfen :

Fliegerhorst Ingolstadt/Manching

Ingolstadt, Deutschland

Breite: 48-43N, Länge: 011-32E, Höhe: 367 m

Beobachtung

Neuester Wetterbericht von vor 59 Minuten, um 04:20 UTC
Wind 4 kt aus Süd/Südwest
Temperatur 11°C
Luftfeuchtigkeit 100%
Luftdruck 1018 hPa
Sichtweite: 2800 m

METAR: ETSI 230420Z AUTO 21004KT 2800 // ////// 11/11 Q1018 ///

Zeit: 07:19 (05:19 UTC)


TAF: fehlend

Wetterbeobachtungen und Prognosen von mehr als 4000 Flughäfen (METAR und TAF Bericht).

Die verfügbaren Stationen werden durch gelbe und rote Markierungen auf der Karte dargestellt.

Führen Sie die Maus auf sie, um den Namen der Station zu sehen.

Darauf klicken, um die Beobachtung von Wetterbeobachtungen und Prognosen zu sehen.

Um die Karte zu ändern : klicken Sie auf den grünen Tasten mit einem schwarzen Kreuz Zum Vergrößern, auf den grünen Button mit einem Gedankenstrich zu verkleinern, oder auf die grünen Pfeile für benachbarte Karten.


METAR-TAF: